Time,TemperatureF,DewpointF,PressureIn,WindDirection,WindDirectionDegrees,WindSpeedMPH,WindSpeedGustMPH,Humidity,HourlyPrecipIn,Conditions,Clouds,dailyrainin,SolarRadiationWatts/m^2,SoftwareType,DateUTC
2013-09-27 00:00:00,61.0,45.0,-100.00,NNW,337,5.0,-999.0,55,-99.99,,,-99.99,0.000000,,2013-09-27 04:00:00,
2013-09-27 00:44:00,61.0,45.0,-100.00,NNW,337,5.0,-999.0,55,-99.99,,,-99.99,0.000000,,2013-09-27 04:44:00,
2013-09-27 00:54:00,61.0,45.0,-100.00,NNW,337,5.0,-999.0,55,-99.99,,,-99.99,0.000000,,2013-09-27 04:54:00,
2013-09-27 01:00:00,60.0,44.0,-100.00,North,0,5.0,-999.0,56,-99.99,,,-99.99,0.000000,,2013-09-27 05:00:00,
2013-09-27 01:43:00,60.0,44.0,-100.00,North,0,5.0,-999.0,56,-99.99,,,-99.99,0.000000,,2013-09-27 05:43:00,
2013-09-27 01:52:00,60.0,44.0,-100.00,North,0,5.0,-999.0,56,-99.99,,,-99.99,0.000000,,2013-09-27 05:52:00,
2013-09-27 02:00:00,58.0,43.0,-100.00,North,0,4.0,-999.0,56,-99.99,,,-99.99,0.000000,,2013-09-27 06:00:00,
2013-09-27 02:43:00,58.0,43.0,-100.00,North,0,4.0,-999.0,56,-99.99,,,-99.99,0.000000,,2013-09-27 06:43:00,
2013-09-27 02:52:00,58.0,43.0,-100.00,North,0,4.0,-999.0,56,-99.99,,,-99.99,0.000000,,2013-09-27 06:52:00,
2013-09-27 03:00:00,56.0,42.0,-100.00,North,0,3.0,-999.0,60,-99.99,,,-99.99,0.000000,,2013-09-27 07:00:00,
2013-09-27 03:44:00,56.0,42.0,-100.00,North,0,3.0,-999.0,60,-99.99,,,-99.99,0.000000,,2013-09-27 07:44:00,
2013-09-27 03:53:00,56.0,42.0,-100.00,North,0,3.0,-999.0,60,-99.99,,,-99.99,0.000000,,2013-09-27 07:53:00,
2013-09-27 04:00:00,56.0,42.0,-100.00,North,0,3.0,-999.0,59,-99.99,,,-99.99,0.000000,,2013-09-27 08:00:00,
2013-09-27 04:42:00,56.0,42.0,-100.00,North,0,3.0,-999.0,59,-99.99,,,-99.99,0.000000,,2013-09-27 08:42:00,
2013-09-27 04:52:00,56.0,42.0,-100.00,North,0,3.0,-999.0,59,-99.99,,,-99.99,0.000000,,2013-09-27 08:52:00,
2013-09-27 05:00:00,55.0,42.0,-100.00,North,0,4.0,-999.0,61,-99.99,,,-99.99,0.000000,,2013-09-27 09:00:00,
2013-09-27 05:44:00,55.0,42.0,-100.00,North,0,4.0,-999.0,61,-99.99,,,-99.99,0.000000,,2013-09-27 09:44:00,
2013-09-27 05:54:00,55.0,42.0,-100.00,North,0,4.0,-999.0,61,-99.99,,,-99.99,0.000000,,2013-09-27 09:54:00,
2013-09-27 06:00:00,55.0,41.0,-100.00,North,0,5.0,-999.0,58,-99.99,,,-99.99,0.000000,,2013-09-27 10:00:00,
2013-09-27 06:42:00,55.0,41.0,-100.00,North,0,5.0,-999.0,58,-99.99,,,-99.99,0.000000,,2013-09-27 10:42:00,
2013-09-27 06:53:00,55.0,41.0,-100.00,North,0,5.0,-999.0,58,-99.99,,,-99.99,0.000000,,2013-09-27 10:53:00,
2013-09-27 07:00:00,55.0,40.0,-100.00,North,0,6.0,-999.0,56,-99.99,,,-99.99,0.000000,,2013-09-27 11:00:00,
2013-09-27 07:43:00,55.0,40.0,-100.00,North,0,6.0,-999.0,56,-99.99,,,-99.99,0.000000,,2013-09-27 11:43:00,
2013-09-27 07:52:00,55.0,40.0,-100.00,North,0,6.0,-999.0,56,-99.99,,,-99.99,0.000000,,2013-09-27 11:52:00,
2013-09-27 09:00:00,56.0,44.0,-100.00,NNE,22,5.0,-999.0,62,-99.99,,,-99.99,90.480003,,2013-09-27 13:00:00,
2013-09-27 09:42:00,56.0,44.0,-100.00,NNE,22,5.0,-999.0,62,-99.99,,,-99.99,90.480003,,2013-09-27 13:42:00,
2013-09-27 09:53:00,56.0,44.0,-100.00,NNE,22,5.0,-999.0,62,-99.99,,,-99.99,90.480003,,2013-09-27 13:53:00,
2013-09-27 10:00:00,61.0,46.0,-100.00,NNE,22,7.0,-999.0,58,-99.99,,,-99.99,232.000000,,2013-09-27 14:00:00,
2013-09-27 10:42:00,61.0,46.0,-100.00,NNE,22,7.0,-999.0,58,-99.99,,,-99.99,232.000000,,2013-09-27 14:42:00,
2013-09-27 10:52:00,61.0,46.0,-100.00,NNE,22,7.0,-999.0,58,-99.99,,,-99.99,232.000000,,2013-09-27 14:52:00,
2013-09-27 11:00:00,66.0,47.0,-100.00,NNE,22,7.0,-999.0,50,-99.99,,,-99.99,368.880005,,2013-09-27 15:00:00,
2013-09-27 11:44:00,66.0,47.0,-100.00,NNE,22,7.0,-999.0,50,-99.99,,,-99.99,368.880005,,2013-09-27 15:44:00,
2013-09-27 11:54:00,66.0,47.0,-100.00,NNE,22,7.0,-999.0,50,-99.99,,,-99.99,368.880005,,2013-09-27 15:54:00,
2013-09-27 12:00:00,70.0,46.0,-100.00,NNE,22,9.0,-999.0,41,-99.99,,,-99.99,452.399994,,2013-09-27 16:00:00,
2013-09-27 12:44:00,70.0,46.0,-100.00,NNE,22,9.0,-999.0,41,-99.99,,,-99.99,452.399994,,2013-09-27 16:44:00,
2013-09-27 12:53:00,70.0,46.0,-100.00,NNE,22,9.0,-999.0,41,-99.99,,,-99.99,452.399994,,2013-09-27 16:53:00,
2013-09-27 13:00:00,74.0,44.0,-100.00,NNE,22,8.0,-999.0,34,-99.99,,,-99.99,560.280029,,2013-09-27 17:00:00,
2013-09-27 13:43:00,74.0,44.0,-100.00,NNE,22,8.0,-999.0,34,-99.99,,,-99.99,560.280029,,2013-09-27 17:43:00,
2013-09-27 13:52:00,74.0,44.0,-100.00,NNE,22,8.0,-999.0,34,-99.99,,,-99.99,560.280029,,2013-09-27 17:52:00,
2013-09-27 16:00:00,79.0,43.0,-100.00,North,0,8.0,-999.0,28,-99.99,,,-99.99,489.519989,,2013-09-27 20:00:00,
2013-09-27 16:43:00,79.0,43.0,-100.00,North,0,8.0,-999.0,28,-99.99,,,-99.99,489.519989,,2013-09-27 20:43:00,
2013-09-27 16:52:00,79.0,43.0,-100.00,North,0,8.0,-999.0,28,-99.99,,,-99.99,489.519989,,2013-09-27 20:52:00,
2013-09-27 17:00:00,79.0,43.0,-100.00,North,0,7.0,-999.0,28,-99.99,,,-99.99,351.480011,,2013-09-27 21:00:00,
2013-09-27 17:44:00,79.0,43.0,-100.00,North,0,7.0,-999.0,28,-99.99,,,-99.99,351.480011,,2013-09-27 21:44:00,
2013-09-27 17:54:00,79.0,43.0,-100.00,North,0,7.0,-999.0,28,-99.99,,,-99.99,351.480011,,2013-09-27 21:54:00,
2013-09-27 20:00:00,72.0,49.0,-100.00,North,0,2.0,-999.0,44,-99.99,,,-99.99,12.760000,,2013-09-28 00:00:00,
2013-09-27 20:42:00,72.0,49.0,-100.00,North,0,2.0,-999.0,44,-99.99,,,-99.99,12.760000,,2013-09-28 00:42:00,
2013-09-27 20:52:00,72.0,49.0,-100.00,North,0,2.0,-999.0,44,-99.99,,,-99.99,12.760000,,2013-09-28 00:52:00,
2013-09-27 21:00:00,67.0,50.0,-100.00,NNW,337,3.0,-999.0,54,-99.99,,,-99.99,0.000000,,2013-09-28 01:00:00,
2013-09-27 21:42:00,67.0,50.0,-100.00,NNW,337,3.0,-999.0,54,-99.99,,,-99.99,0.000000,,2013-09-28 01:42:00,
2013-09-27 21:52:00,67.0,50.0,-100.00,NNW,337,3.0,-999.0,54,-99.99,,,-99.99,0.000000,,2013-09-28 01:52:00,
2013-09-27 22:00:00,64.0,50.0,-100.00,North,0,3.0,-999.0,59,-99.99,,,-99.99,0.000000,,2013-09-28 02:00:00,
2013-09-27 22:42:00,64.0,50.0,-100.00,North,0,3.0,-999.0,59,-99.99,,,-99.99,0.000000,,2013-09-28 02:42:00,
2013-09-27 22:53:00,64.0,50.0,-100.00,North,0,3.0,-999.0,59,-99.99,,,-99.99,0.000000,,2013-09-28 02:53:00,